Temperature
18 18 19 19 19 20 21 24 25 25 25 25 25 25 24 23 21 18 18 18 17 17 17 16 15 15 14 14 13 13 13 12 12 12 11 11 11 11 11 11 11 12 12 12 12 12 12 13 13
18 18 19 20 20 20 22 24 25 25 25 24 24 25 24 22 20 19 18 18 17 17 17 16 15 15 14 14 13 13 12 12 12 11 11 10 10 11 11 11 11 11 12 12 12 12 12 13 13
18 18 20 20 21 22 23 24 24 25 24 24 24 24 24 22 20 19 19 18 17 16 16 16 15 15 14 13 13 13 12 12 11 11 11 10 10 10 10 11 11 11 11 12 12 12 12 12 12
18 19 21 21 22 23 24 25 24 24 24 24 24 24 23 22 21 20 19 18 17 16 16 16 15 15 14 13 13 12 12 12 11 11 11 10 10 10 10 11 11 11 11 11 11 11 11 12 12
18 20 20 21 22 24 25 25 25 24 24 24 24 23 21 21 21 20 19 18 17 16 16 16 15 14 14 13 13 13 12 12 11 11 11 10 10 10 10 11 11 11 11 11 11 11 11 11 12
19 21 20 21 23 24 25 25 25 24 24 24 24 23 20 20 20 20 19 18 17 16 16 16 15 14 14 13 13 13 12 11 11 11 11 11 11 11 11 11 11 11 11 11 11 11 11 11 11
20 20 20 22 23 24 25 25 25 24 24 25 24 23 20 19 20 19 18 18 17 16 16 16 15 14 14 13 13 12 12 11 11 11 11 11 11 10 10 11 11 11 10 10 10 10 10 11 10
20 20 21 22 23 23 24 24 24 24 24 24 24 23 20 20 20 19 18 17 17 16 16 16 15 14 14 13 12 12 12 11 11 11 11 11 11 10 10 10 10 10 10 10 10 10 10 10 10
19 19 20 22 23 23 24 24 24 23 24 24 23 22 21 20 19 19 18 17 16 16 15 15 15 14 14 13 12 12 12 11 11 11 11 11 10 10 10 10 10 10 10 10 10 10 9 9 9
20 18 20 23 23 23 23 23 23 23 23 23 22 21 20 20 19 19 18 17 17 16 15 15 15 14 13 12 12 12 12 11 11 11 11 10 10 10 9 10 9 9 9 9 9 9 9 9 8
20 19 21 22 23 23 23 23 23 23 22 23 23 21 20 20 19 19 18 18 17 16 15 15 14 14 13 12 12 12 12 11 11 11 10 10 10 10 9 9 9 9 9 9 9 9 8 8 8
20 21 22 22 22 21 22 22 22 22 22 23 23 22 21 20 19 19 18 18 17 16 16 15 14 14 13 13 12 12 11 11 11 11 10 10 10 10 10 9 9 9 9 9 9 9 8 8 8
20 20 21 21 21 21 21 21 21 22 22 22 22 22 21 20 20 19 19 18 17 16 16 15 14 14 13 13 12 12 11 11 11 11 10 10 10 10 10 10 9 9 9 9 9 9 9 9 9
21 21 21 21 21 21 20 20 21 21 22 22 22 21 21 20 20 19 19 18 18 17 16 15 14 14 13 13 12 12 12 11 11 11 10 10 10 10 10 10 9 9 9 9 9 9 9 9 9
20 20 20 21 21 21 20 19 19 21 21 21 21 21 21 20 20 20 19 18 18 17 16 15 14 13 13 13 12 12 11 11 11 11 10 10 10 10 10 10 10 9 9 9 9 9 9 9 8
20 18 18 20 20 20 19 17 20 22 21 21 21 21 21 21 20 20 19 19 18 17 16 15 14 14 13 13 12 12 11 11 11 11 10 10 10 10 10 10 10 9 9 9 9 9 9 8 8
18 17 18 19 20 20 18 18 20 21 21 21 21 21 21 21 20 20 19 19 18 17 16 15 15 14 13 13 12 12 11 11 11 11 10 10 10 10 10 10 10 9 9 9 9 9 9 8 9
17 18 19 19 20 19 18 18 19 21 21 21 21 21 21 21 21 20 19 19 18 17 16 15 15 14 13 12 12 11 11 11 11 11 10 10 10 10 10 10 10 9 9 9 9 8 8 8 8
19 19 19 20 20 19 18 18 19 20 21 21 21 22 22 22 21 21 20 19 18 17 16 15 15 14 13 12 12 12 11 11 11 11 10 10 10 10 10 10 10 9 9 9 9 8 8 8 8
18 18 18 19 20 19 18 18 19 19 20 21 21 21 21 21 21 21 20 19 18 17 16 15 15 14 13 13 12 12 12 11 11 11 10 10 10 10 10 10 10 9 9 9 9 9 8 8 8
18 17 18 18 19 19 18 17 18 20 20 21 21 21 21 21 21 20 19 18 17 16 16 15 15 14 13 13 12 11 11 11 11 10 10 10 10 10 10 10 10 9 9 9 9 9 8 8 7
17 18 18 18 17 16 18 16 18 19 19 19 20 21 21 20 20 20 19 18 17 16 16 15 15 14 13 12 12 12 12 11 11 11 11 10 10 10 10 10 10 9 9 9 9 8 8 8 7
18 19 18 18 17 16 16 16 17 19 19 19 19 20 20 20 20 19 18 17 17 16 15 14 14 13 13 12 12 12 12 11 11 11 11 10 10 10 10 10 10 9 9 9 9 8 8 7 7
18 18 17 17 16 14 16 16 16 18 19 20 19 20 20 19 19 18 17 17 16 15 14 14 13 13 12 12 12 11 11 11 11 11 11 10 10 10 10 10 9 9 9 9 8 8 7 7 6
17 16 14 13 13 14 17 16 17 20 20 20 20 20 19 19 18 17 16 16 15 14 14 13 13 12 12 12 11 11 11 11 11 11 11 10 10 10 10 10 9 9 9 8 8 8 7 7 6
16 16 14 14 14 16 17 16 18 20 20 20 20 20 19 18 17 17 16 15 14 14 13 13 12 12 12 11 11 11 11 11 11 11 11 11 10 10 10 10 9 9 9 8 8 7 7 6 6
16 15 16 16 16 15 16 18 19 19 19 19 19 19 18 18 17 16 15 14 13 13 13 12 12 12 12 11 11 11 11 10 10 10 10 10 10 10 10 9 9 9 8 8 7 7 7 6 6
17 16 15 14 13 13 15 16 17 18 18 18 18 18 18 17 16 15 14 14 13 12 12 12 12 12 12 11 11 11 11 10 10 10 10 10 10 10 9 9 9 8 8 8 7 7 6 6 5
15 16 16 15 14 14 14 16 19 18 18 18 18 18 18 17 16 15 14 13 12 12 12 11 11 11 11 11 11 11 10 10 10 10 10 10 10 10 9 9 9 8 8 7 7 6 6 5 5
16 16 16 14 14 15 14 16 20 19 18 18 18 18 17 17 16 15 14 13 12 12 11 11 11 11 11 11 11 11 10 10 10 10 10 10 10 9 9 9 8 8 7 7 6 6 5 5 4
Wind_Speed
12 14 9 3 4 6 8 4 3 5 4 6 6 3 5 8 6 8 6 10 16 16 21 20 19 18 17 17 17 16 15 14 14 13 13 13 13 13 13 14 14 14 15 15 15 15 16 15 15
12 9 5 4 5 7 6 5 4 6 7 8 5 0 4 7 9 10 7 11 16 18 21 19 19 18 17 17 16 16 15 14 14 13 13 12 12 13 13 13 13 13 14 14 14 14 14 14 14
11 9 4 4 6 7 3 6 7 8 8 6 4 1 4 8 11 9 9 13 14 16 20 20 20 18 18 17 17 16 15 14 14 13 13 12 12 12 12 12 12 12 12 12 12 12 13 12 12
6 4 5 6 9 5 2 5 9 8 6 3 5 6 6 7 6 10 13 13 14 14 20 21 20 18 18 18 17 16 15 14 14 13 12 12 11 11 11 11 10 10 10 11 11 11 11 11 11
4 4 7 8 8 3 1 5 7 8 8 6 5 6 8 7 13 14 12 13 14 14 20 21 20 19 18 18 17 16 15 15 14 13 12 11 10 10 9 9 9 9 8 9 9 9 9 9 9
4 5 6 8 7 4 3 5 4 6 7 7 5 4 7 10 12 12 11 11 12 14 19 20 20 19 18 18 17 16 15 15 14 13 12 11 10 9 8 8 7 7 7 7 7 7 8 8 8
6 6 9 8 5 5 4 5 6 6 6 7 4 3 9 10 12 12 11 11 12 14 17 18 18 18 18 18 17 16 15 14 14 13 12 10 9 8 7 7 6 5 5 5 5 5 5 5 5
4 5 9 8 5 4 5 4 3 3 2 4 2 0 9 12 12 11 10 10 11 12 14 15 18 18 17 17 17 17 15 15 14 13 12 11 10 8 7 7 5 4 3 3 3 3 3 3 3
5 5 7 6 4 3 7 5 4 1 1 3 4 6 10 14 13 11 9 8 10 11 12 13 14 17 18 17 17 17 16 15 15 14 13 12 11 11 9 8 6 3 2 1 0 2 3 5 6
5 6 7 4 4 2 4 4 4 4 6 5 6 8 10 11 12 12 11 11 12 12 12 12 12 14 16 16 17 16 15 16 15 15 14 12 9 8 8 9 7 5 4 4 4 5 7 8 5
7 8 7 6 4 5 2 2 3 5 7 7 8 13 13 11 11 12 12 12 12 12 11 11 11 12 13 11 14 13 14 15 14 15 14 11 8 7 7 8 8 9 8 7 6 8 8 5 3
10 9 9 6 1 1 4 4 5 7 7 4 0 10 14 13 13 13 13 12 12 13 12 11 10 10 12 12 11 11 10 11 10 12 13 10 7 5 5 5 6 6 5 4 3 5 4 4 4
13 11 9 6 2 3 6 7 8 9 8 6 2 5 11 13 13 13 12 11 12 13 13 12 12 11 10 9 8 10 9 11 12 12 11 10 6 4 4 3 4 3 2 1 2 4 3 4 5
8 9 10 9 7 7 8 10 10 10 9 8 7 7 10 11 12 11 12 12 13 14 14 12 12 11 10 8 6 7 9 11 12 12 11 11 8 6 4 3 3 2 1 0 2 4 3 4 4
7 8 10 10 10 8 6 11 14 14 10 9 9 10 11 11 11 11 11 11 12 14 14 13 13 12 12 10 9 8 10 11 9 11 12 11 9 7 5 2 2 2 1 1 2 4 4 3 3
7 9 10 10 11 7 6 11 9 7 9 10 10 10 10 12 12 11 11 10 11 13 14 14 12 12 13 11 9 7 10 11 9 11 12 11 9 7 4 2 2 2 2 1 1 1 2 3 3
10 11 11 9 10 9 9 9 8 6 8 10 10 11 10 11 12 12 12 12 11 12 14 15 13 13 12 11 9 8 9 9 10 11 10 10 9 8 5 3 3 4 2 1 0 1 1 3 3
9 12 11 10 9 10 11 11 10 9 9 10 11 11 11 11 12 12 12 12 12 11 13 14 14 13 12 10 8 6 7 6 8 9 10 11 9 8 6 4 4 4 2 1 1 1 1 1 2
11 10 9 7 6 8 10 12 12 12 11 12 11 11 11 11 11 12 13 12 11 10 12 14 15 13 11 10 9 8 7 6 6 6 10 11 10 9 6 4 4 3 2 2 2 2 2 2 3
15 14 12 8 3 4 8 12 13 13 14 12 11 11 11 10 8 10 12 12 12 12 12 13 14 14 13 10 9 8 7 6 5 5 8 10 10 9 7 5 4 4 3 3 3 3 2 2 3
16 14 13 9 6 6 8 11 13 12 13 12 11 11 10 10 9 9 11 12 12 12 13 13 14 14 13 11 8 8 6 5 4 5 5 7 10 10 8 6 5 4 3 3 3 3 2 1 2
15 12 11 9 8 7 7 8 9 9 10 11 10 9 9 9 8 9 11 13 13 12 11 11 12 13 13 13 12 13 9 7 6 6 6 6 9 9 9 8 7 5 4 4 3 3 2 2 0
11 6 8 8 9 10 10 10 8 9 10 9 8 8 7 6 7 9 11 12 12 11 10 11 12 12 12 13 13 13 10 7 7 8 9 7 6 8 9 8 7 5 4 4 4 3 2 1 1
8 5 4 6 6 10 13 11 8 8 8 5 5 6 6 6 6 7 9 10 9 10 10 10 12 12 12 13 13 13 12 11 12 11 10 8 6 5 8 8 7 6 4 5 4 3 2 1 1
10 7 5 6 7 9 10 10 8 7 4 4 3 3 5 6 7 8 10 11 11 11 11 10 12 12 13 13 13 13 12 12 13 12 10 9 7 5 7 6 6 5 5 6 4 3 3 2 2
15 14 10 7 6 5 8 9 6 5 5 5 4 3 3 5 6 8 10 11 11 12 12 12 13 12 13 13 12 12 11 10 9 9 9 9 8 7 8 7 7 7 7 6 5 3 3 3 3
17 17 13 7 7 6 6 7 7 7 6 6 5 5 5 5 7 8 9 10 11 12 12 12 13 12 13 12 11 11 11 10 10 10 9 8 7 7 9 8 7 7 7 6 5 4 4 4 4
12 13 7 8 6 7 8 10 8 9 9 8 6 5 5 6 7 8 8 9 10 11 11 11 11 12 11 12 11 9 10 10 10 10 10 9 9 9 10 9 8 7 6 6 5 4 4 4 4
15 16 9 9 8 6 5 5 5 9 9 8 7 6 7 7 8 8 8 9 10 10 11 11 11 11 11 11 10 10 10 10 10 10 10 10 9 10 10 9 8 8 7 6 6 5 5 6 5
18 19 15 12 9 9 6 5 2 7 9 8 7 6 7 8 8 8 9 9 9 11 11 11 11 11 11 11 10 10 10 10 10 10 10 10 10 10 9 9 8 7 7 6 6 6 6 6 6
Wind_Direction
278 258 245 239 234 232 237 227 131 107 100 73 62 17 41 46 51 112 162 146 127 134 141 149 147 144 139 133 126 123 119 113 107 102 98 93 89 84 79 76 74 71 69 68 67 66 64 62 60
281 259 240 238 238 233 219 186 140 124 99 88 84 116 92 83 92 114 141 127 133 136 143 149 149 146 143 138 133 129 124 119 113 108 103 97 92 88 84 81 78 75 73 71 69 66 64 62 60
270 261 238 227 238 242 194 140 130 107 109 130 142 62 63 97 115 129 137 134 135 136 143 146 149 147 144 140 136 133 130 125 119 114 108 101 96 91 87 84 81 78 76 73 70 67 65 62 60
253 231 242 246 246 242 206 126 114 118 133 163 159 127 87 65 95 118 133 140 137 137 138 145 151 150 148 144 141 140 137 132 126 120 114 107 102 96 92 88 84 80 77 73 70 67 63 60 56
248 242 233 244 250 249 140 113 124 152 161 182 209 128 102 80 101 121 142 145 143 140 138 148 153 152 150 147 145 144 141 138 132 127 121 115 110 104 99 93 87 82 76 71 68 64 60 54 49
241 246 239 231 224 208 151 119 164 185 171 166 193 146 116 131 125 140 146 148 145 138 140 150 155 156 154 152 149 147 146 145 140 135 129 124 120 114 107 101 93 84 77 70 63 57 53 48 43
255 260 261 253 215 187 164 148 193 209 182 164 178 154 128 146 136 143 147 152 142 138 141 150 158 159 158 156 155 153 153 152 149 144 138 136 133 127 120 113 104 94 82 70 62 53 46 41 33
274 277 261 259 232 192 144 152 213 241 189 119 134 183 140 143 139 145 149 149 142 142 146 154 161 162 161 160 160 159 160 159 155 151 147 147 148 145 141 135 126 115 98 75 55 37 12 347 327
272 260 257 248 244 173 134 172 192 343 296 123 101 61 115 132 143 145 147 146 147 153 154 159 164 165 165 164 165 163 163 162 157 156 158 162 169 170 165 148 150 150 151 150 344 306 294 287 274
223 251 265 304 350 26 130 187 180 198 230 186 135 107 120 141 155 160 165 169 166 168 167 163 164 165 165 166 163 168 166 166 168 166 172 184 185 169 157 160 177 191 210 232 247 263 276 276 264
222 243 265 291 351 1 8 246 223 223 236 220 181 155 153 164 172 178 181 181 176 173 171 166 163 162 163 160 164 169 169 172 182 174 178 182 168 161 166 174 193 212 222 232 236 252 260 279 304
243 247 254 268 30 327 280 267 256 239 248 275 169 150 159 174 185 191 192 187 175 173 173 168 161 161 163 162 167 165 164 170 174 175 178 173 165 175 181 185 185 208 212 213 243 264 276 298 304
237 250 255 251 201 240 273 268 265 257 257 269 281 152 174 186 192 196 195 187 172 173 172 171 166 165 164 162 166 169 167 169 171 173 180 171 165 178 183 194 191 208 209 204 269 296 327 334 345
240 242 245 240 225 222 242 258 254 250 246 243 229 206 200 206 202 195 194 191 179 174 172 171 173 169 165 167 166 168 168 167 166 167 177 178 175 177 181 197 191 196 184 273 321 327 346 335 335
258 261 256 236 222 219 233 254 244 243 240 237 233 220 211 214 208 202 195 191 180 172 171 173 176 173 169 171 172 168 166 166 163 166 177 179 179 179 175 177 160 156 144 356 348 336 336 317 323
233 241 246 235 215 190 202 254 256 210 209 230 238 236 221 212 207 201 192 184 179 169 171 174 176 177 175 173 171 167 170 167 166 166 173 180 179 175 175 163 154 126 97 47 13 335 343 338 350
225 231 234 231 200 185 205 251 262 204 205 225 233 236 228 211 203 199 190 179 179 175 170 171 173 178 178 173 168 167 168 165 165 163 165 172 174 180 169 155 142 127 114 83 16 27 32 356 351
215 223 232 229 189 197 216 244 260 259 241 239 238 236 231 218 204 193 186 176 176 176 169 168 171 178 175 171 167 164 164 164 160 158 161 165 170 172 160 148 136 122 112 98 63 43 31 14 358
251 254 248 242 190 195 227 249 256 256 253 247 243 239 237 231 208 184 177 168 166 169 168 168 170 177 174 174 172 170 169 163 156 154 161 163 162 160 150 136 126 118 125 126 81 61 24 9 12
239 254 264 272 238 216 250 260 262 254 249 245 242 242 242 241 216 183 171 164 168 172 173 170 172 177 177 175 171 167 159 156 150 143 149 155 155 152 146 137 134 124 115 96 82 76 39 10 37
228 234 245 258 273 248 263 268 256 252 240 238 236 234 237 235 216 186 170 169 170 175 177 177 174 176 176 167 159 150 133 125 135 152 154 155 153 147 145 143 131 125 123 123 109 98 91 43 8
229 226 238 256 268 266 253 279 265 254 244 233 224 221 227 231 214 184 175 173 174 176 173 172 172 173 173 168 166 162 162 163 166 160 156 154 150 148 149 144 135 128 123 126 122 106 104 105 32
223 212 228 241 252 264 262 270 262 238 237 225 209 201 205 212 203 182 176 171 170 166 167 170 169 171 173 172 169 168 167 164 152 150 153 154 148 147 147 145 138 134 132 132 125 118 116 118 143
198 194 238 250 250 252 237 239 265 229 224 198 179 174 182 188 181 172 163 155 157 157 161 166 167 172 173 174 174 175 172 165 155 156 161 158 152 149 151 147 145 145 139 135 134 136 148 163 178
187 175 201 211 218 237 211 221 243 220 187 166 169 173 169 170 170 169 162 160 160 161 165 169 169 174 175 179 180 179 176 167 162 163 164 160 158 159 162 152 155 153 146 144 146 155 177 190 198
195 193 198 200 216 224 196 221 236 203 162 146 161 176 167 172 171 169 167 165 164 165 171 175 176 176 177 181 182 179 173 164 164 165 163 164 164 163 159 157 159 156 154 157 161 171 193 196 204
194 207 224 262 288 287 241 226 216 198 174 177 184 180 173 177 170 167 166 166 166 169 176 180 179 177 179 180 179 176 169 163 163 162 158 158 155 155 154 156 158 161 163 167 169 186 203 201 211
207 192 195 215 223 242 250 243 232 203 192 181 177 169 163 161 163 165 169 170 167 169 175 180 181 179 176 176 178 175 167 164 160 158 158 155 152 149 154 161 165 166 169 174 178 192 205 208 220
200 202 193 197 221 220 236 239 213 183 164 157 152 146 152 164 168 170 169 168 165 166 174 181 180 175 174 176 174 168 163 158 156 158 158 154 152 155 161 167 169 173 178 182 189 200 204 216 229
205 207 198 198 205 212 240 262 115 122 131 138 147 153 158 160 163 165 166 166 167 171 176 181 179 176 176 174 169 165 159 156 158 159 157 154 156 160 164 167 171 178 184 188 196 209 213 220 232
Height
1508 1509 1512 1515 1516 1515 1511 1499 1493 1497 1498 1501 1503 1505 1506 1510 1516 1527 1526 1526 1526 1527 1529 1531 1534 1536 1537 1539 1540 1541 1542 1543 1543 1544 1544 1545 1545 1545 1545 1545 1545 1545 1546 1545 1545 1545 1544 1544 1544
1507 1510 1514 1514 1514 1517 1507 1495 1495 1497 1500 1503 1506 1507 1508 1513 1516 1521 1524 1526 1526 1527 1529 1531 1534 1536 1538 1539 1541 1542 1543 1543 1544 1545 1545 1546 1546 1546 1546 1546 1546 1546 1546 1546 1546 1546 1546 1545 1545
1508 1511 1513 1510 1509 1507 1500 1492 1494 1498 1502 1505 1507 1508 1510 1515 1518 1520 1523 1525 1526 1528 1529 1531 1534 1536 1538 1539 1541 1542 1543 1544 1545 1546 1546 1547 1547 1547 1547 1547 1547 1547 1547 1547 1547 1547 1547 1547 1547
1510 1512 1510 1507 1504 1495 1491 1491 1493 1499 1503 1505 1506 1509 1513 1516 1518 1520 1522 1525 1526 1528 1529 1532 1534 1536 1538 1539 1541 1542 1543 1545 1545 1546 1547 1547 1548 1548 1548 1548 1548 1548 1548 1548 1548 1548 1548 1548 1548
1510 1510 1508 1506 1499 1490 1488 1491 1494 1499 1502 1504 1505 1507 1512 1516 1517 1520 1522 1525 1526 1528 1529 1532 1534 1536 1537 1539 1541 1542 1544 1545 1546 1547 1547 1548 1548 1548 1549 1549 1549 1549 1549 1549 1549 1549 1549 1549 1549
1510 1505 1507 1506 1497 1490 1490 1492 1495 1497 1500 1502 1505 1507 1512 1515 1517 1519 1522 1524 1527 1527 1528 1531 1533 1535 1537 1539 1541 1542 1544 1545 1546 1547 1548 1548 1549 1549 1549 1550 1550 1550 1550 1550 1550 1550 1550 1550 1550
1509 1505 1504 1497 1494 1492 1490 1493 1496 1497 1498 1501 1503 1505 1511 1514 1516 1518 1521 1524 1526 1527 1528 1530 1532 1534 1537 1539 1540 1542 1543 1545 1546 1547 1548 1549 1549 1550 1550 1550 1550 1551 1551 1551 1551 1551 1551 1551 1550
1506 1504 1499 1495 1493 1492 1490 1494 1496 1497 1498 1500 1503 1504 1509 1512 1514 1517 1521 1524 1526 1526 1527 1529 1531 1533 1535 1538 1540 1541 1543 1544 1546 1547 1548 1549 1549 1550 1550 1551 1551 1551 1551 1551 1551 1551 1551 1551 1551
1505 1506 1501 1493 1491 1489 1490 1494 1496 1497 1499 1500 1503 1505 1508 1510 1513 1516 1519 1522 1524 1525 1526 1528 1530 1532 1534 1536 1538 1540 1542 1544 1545 1546 1547 1548 1549 1550 1550 1551 1552 1552 1552 1552 1552 1551 1551 1551 1550
1503 1505 1497 1489 1487 1488 1490 1493 1496 1498 1498 1500 1502 1505 1507 1509 1511 1513 1516 1518 1520 1523 1525 1526 1528 1530 1532 1535 1537 1539 1541 1542 1544 1545 1547 1548 1549 1550 1551 1551 1552 1552 1552 1552 1552 1551 1551 1551 1550
1498 1498 1493 1490 1489 1490 1492 1494 1495 1497 1498 1498 1499 1501 1504 1506 1509 1511 1513 1515 1517 1519 1522 1524 1526 1528 1531 1533 1535 1537 1539 1541 1543 1544 1546 1548 1549 1550 1551 1551 1551 1551 1551 1551 1551 1551 1551 1551 1550
1495 1492 1491 1490 1491 1492 1494 1494 1495 1495 1496 1496 1497 1498 1500 1503 1505 1507 1510 1512 1514 1517 1519 1522 1524 1526 1529 1531 1533 1535 1537 1539 1542 1543 1545 1547 1548 1549 1550 1551 1551 1551 1551 1551 1551 1551 1551 1550 1550
1492 1490 1490 1490 1491 1493 1494 1494 1494 1493 1494 1494 1495 1496 1498 1500 1502 1504 1507 1509 1511 1513 1516 1518 1521 1523 1526 1529 1531 1533 1536 1538 1540 1542 1544 1545 1547 1548 1549 1550 1550 1550 1551 1551 1550 1550 1550 1549 1548
1488 1488 1488 1488 1489 1491 1492 1492 1492 1489 1491 1492 1492 1494 1495 1497 1498 1500 1503 1505 1507 1508 1511 1514 1517 1520 1522 1525 1528 1531 1533 1536 1538 1540 1542 1544 1545 1547 1548 1548 1549 1549 1549 1549 1549 1549 1548 1547 1546
1486 1487 1486 1484 1486 1487 1490 1490 1486 1485 1487 1487 1488 1489 1490 1492 1494 1496 1498 1500 1502 1504 1506 1510 1513 1516 1519 1522 1525 1528 1531 1533 1536 1538 1540 1542 1543 1545 1546 1547 1547 1547 1548 1547 1547 1547 1546 1545 1544
1485 1488 1490 1482 1481 1483 1491 1491 1480 1479 1481 1483 1484 1485 1485 1486 1488 1491 1493 1495 1498 1500 1502 1505 1508 1512 1515 1518 1522 1525 1528 1531 1533 1535 1537 1539 1541 1542 1544 1545 1545 1545 1545 1545 1545 1544 1543 1543 1541
1485 1489 1486 1480 1476 1479 1485 1485 1478 1477 1477 1478 1479 1479 1480 1481 1482 1485 1487 1490 1493 1495 1497 1500 1503 1507 1511 1514 1518 1521 1525 1528 1530 1532 1535 1537 1538 1540 1541 1542 1543 1543 1543 1543 1542 1542 1541 1540 1539
1483 1482 1479 1477 1473 1475 1480 1479 1475 1474 1473 1473 1473 1473 1474 1475 1476 1478 1481 1484 1487 1490 1493 1495 1498 1502 1507 1511 1514 1518 1521 1524 1527 1529 1531 1534 1536 1537 1539 1540 1540 1541 1541 1540 1540 1539 1539 1538 1536
1473 1473 1474 1469 1466 1472 1475 1474 1470 1468 1468 1467 1466 1467 1467 1468 1470 1472 1474 1478 1481 1485 1488 1490 1493 1497 1502 1505 1509 1512 1516 1520 1523 1526 1528 1531 1533 1534 1536 1537 1538 1538 1538 1538 1538 1537 1536 1535 1534
1472 1474 1473 1468 1465 1469 1472 1470 1464 1461 1460 1459 1459 1460 1460 1462 1464 1465 1468 1471 1474 1478 1482 1485 1488 1491 1496 1500 1504 1508 1512 1516 1519 1522 1525 1527 1530 1531 1533 1534 1535 1535 1536 1536 1535 1535 1534 1533 1532
1467 1471 1472 1471 1467 1466 1471 1470 1460 1453 1451 1452 1452 1453 1454 1456 1457 1459 1462 1464 1468 1472 1476 1479 1482 1486 1491 1496 1501 1505 1508 1512 1515 1518 1521 1524 1526 1528 1530 1531 1532 1532 1533 1533 1533 1533 1532 1531 1531
1465 1462 1465 1468 1474 1476 1471 1477 1459 1450 1447 1445 1445 1446 1448 1450 1452 1454 1456 1459 1462 1466 1470 1474 1478 1482 1486 1491 1495 1498 1501 1505 1508 1513 1517 1520 1523 1525 1527 1528 1529 1530 1530 1530 1530 1530 1530 1529 1529
1456 1457 1462 1466 1472 1476 1471 1475 1459 1445 1445 1441 1439 1441 1442 1445 1447 1449 1451 1454 1457 1461 1465 1469 1473 1477 1482 1486 1490 1494 1498 1502 1506 1509 1513 1516 1519 1521 1523 1525 1526 1527 1527 1528 1528 1528 1527 1527 1526
1451 1458 1463 1466 1472 1480 1468 1471 1459 1443 1437 1435 1435 1436 1438 1440 1443 1445 1447 1450 1453 1457 1460 1464 1468 1472 1477 1481 1486 1490 1494 1498 1501 1504 1508 1512 1515 1517 1520 1521 1522 1523 1524 1525 1525 1525 1525 1524 1524
1450 1464 1478 1481 1482 1474 1455 1458 1448 1431 1428 1429 1432 1434 1435 1437 1439 1441 1443 1445 1448 1451 1455 1459 1463 1468 1472 1477 1481 1486 1490 1494 1497 1500 1504 1507 1510 1513 1515 1517 1519 1520 1521 1521 1522 1522 1521 1521 1520
1445 1454 1467 1474 1469 1456 1449 1449 1436 1423 1423 1426 1429 1431 1433 1435 1436 1438 1439 1441 1444 1447 1451 1455 1459 1463 1468 1472 1477 1482 1486 1490 1493 1497 1500 1503 1506 1509 1512 1514 1515 1516 1517 1518 1518 1518 1518 1517 1517
1440 1445 1444 1453 1452 1457 1446 1433 1424 1420 1421 1424 1426 1429 1430 1432 1433 1434 1436 1438 1440 1443 1446 1450 1455 1459 1464 1468 1473 1478 1482 1485 1489 1493 1496 1499 1502 1505 1508 1510 1512 1513 1513 1514 1514 1514 1514 1513 1512
1426 1435 1446 1454 1463 1466 1447 1438 1431 1422 1421 1422 1424 1426 1428 1429 1430 1432 1433 1435 1437 1440 1443 1448 1452 1455 1460 1465 1469 1474 1477 1481 1485 1489 1492 1495 1498 1501 1504 1506 1507 1508 1509 1510 1510 1510 1509 1509 1508
1425 1430 1433 1442 1446 1451 1449 1435 1409 1411 1413 1418 1421 1423 1425 1426 1428 1429 1431 1433 1435 1437 1441 1444 1448 1452 1456 1461 1465 1470 1473 1477 1481 1484 1488 1491 1494 1497 1499 1501 1503 1504 1505 1505 1505 1505 1505 1504 1503
1414 1417 1424 1437 1437 1435 1441 1432 1404 1406 1409 1413 1417 1420 1422 1424 1425 1426 1428 1430 1432 1435 1437 1441 1444 1448 1452 1457 1461 1465 1469 1472 1476 1480 1483 1487 1490 1493 1495 1497 1498 1499 1500 1501 1501 1500 1500 1499 1498